Location: Crescent
(42.8242°N, 73.7329°W)
Time: 00:41:57
(UTC+00:00)

Explorer 7 - Pass Details

Date: 16 February 2026
Orbit: 430 x 541 km, 50.2° (Epoch: 10 March)

Event Time Altitude Azimuth Distance (km) Brightness Sun altitude
Rises 00:04:39 0° 293° (WNW) 2,521 11.4 -18.5°
Reaches altitude 10° 00:07:00 10° 306° (NW) 1,665 10.0 -19.0°
Maximum altitude 00:10:16 27° 6° (N) 986 8.0 -19.6°
Enters shadow 00:10:43 26° 19° (NNE) 1,007 8.0 -19.7°
Drops below altitude 10° 00:13:38 10° 66° (ENE) 1,725 - -20.2°
Sets 00:16:08 0° 78° (ENE) 2,633 - -20.7°
